Showing default

OV2-1, 1641

Orbit data source: Space-Track

OV2-1, 1641 is a payload satellite owned by USAF SSD (US) in LEO that was launched on Fri, 15 Oct 1965 UTC via a TITAN IIIC launch vehicle from the Air Force Eastern Test Range (AFETR). Payload-class satellites include a variety of spacecraft equipped with specific instruments for various scientific and technological missions. These include communications satellites like Starlink; space stations such as the ISS; scientific satellites like the Hubble; Earth observation satellites from companies like Planet Labs, Umbra, and HawkEye 360; GPS; miniature CubeSats for education and research; and military/defense satellites.

Loading next visibility...
Identifier
1641, 1965-082C
Orbit
LEO
Country
Flag of USUS
Related business
Manufacturer
Northrop
Mission
Non-operational spacecraft
Bus & Motor
OV2, Unknown motor
Mass
170 kg wet, 170 kg dry
Launch date (UTC)
1965-10-15 (61 years ago)
Launch vehicle
TITAN IIIC
Launch site
Air Force Eastern Test Range (AFETR)
Object type
Payload
Rocket body
Debris
Shape & HBR
Unknown
Radar Cross Section
Medium (>0.1 m² and <1 m²)

Expand to show TLE details & history
Last TLE update: 1 day ago

TLE from 1 day ago
0 OV2-1
1 01641U 65082C   26105.05051046  .00000173  00000-0  32317-4 0  9999
2 01641  32.2961 231.1613 0018602   3.1534 356.9227 14.54789722208099
Epoch: 2026-04-15T01:12Z
TLE epoch observation values (Epoch: 2026-04-15T01:12:44.103Z)
Latitude
-0.00001°
Longitude
9.75955°
Altitude
695.555 km
Speed
7.518 km/s
True Right ascension
15h 24m 38s
True Declination
0° 00' 00"
Sunlit
Object was in full shadow at epoch
Visualization orbit readout
Latitude
Unknown
Longitude
Unknown
Altitude
Unknown
Speed
Unknown
Apparent Right ascension
Unknown
Apparent Declination
Unknown
Sunlit
N/A
Visualization observer readout
Local Sidereal Time
17:21:48
Azimuth
Unknown
Elevation
Unknown
Doppler factor
Unknown
Orbital elements
Apogee altitude
726.798 km
Perigee altitude
700.414 km
Semi-major axis
7,091.743 km
Eccentricity
0.00186
Inclination
32.2961°
RAAN
231.1613°
Arg. of periapsis
3.1534°
True anomaly
356.91123°
Mean anomaly
356.9227°
Eccentric anomaly
356.91697°
Mean motion
3.63424 °/min
Orbital period
99.06 mins
BSTAR
0.000032317

Documentation

Showing up to 5 results
|